Weather History for North Myrtle Beach, SC

Change the Weather History Date:

Tuesday, July 16, 2013

  Actual Average Record
Temperature  
Mean Temperature 81 °F 81 °F  
Max Temperature 88 °F 88 °F 95 °F (1956)
Min Temperature 73 °F 73 °F 63 °F (2001)
Degree Days  
Heating Degree Days 0 0  
Month to date heating degree days 0 0  
Since 1 June heating degree days 0 0  
Since 1 July heating degree days 0 0  
Cooling Degree Days 16 16  
Month to date cooling degree days 251 248  
Year to date cooling degree days 818 817  
Since 1 June cooling degree days 638 605  
Growing Degree Days 30 (Base 50)    
Moisture  
Dew Point 73 °F    
Average Humidity 78    
Maximum Humidity 100    
Minimum Humidity 55    
Precipitation  
Precipitation 0.00 in 0.20 in 1.19 in (2014)
Month to date precipitation 5.32 2.97  
Year to date precipitation 35.21 25.01  
Sea Level Pressure  
Sea Level Pressure 30.24 in    
Wind  
Wind Speed 5 mph (South)    
Max Wind Speed 13 mph    
Max Gust Speed 15 mph    
Visibility 9 miles    
Events      
T = Trace of Precipitation, MM = Missing Value Source: NWS Daily Summary

Daily Weather History Graph

Daily Weather History Graph

Search for Another Location

Airport:

Trip Planner

Search our weather history database for the weather conditions in past years. The results will help you decide how hot, cold, wet, or windy it might be!

Date:

Astronomy

Jul. 16, 2013 Rise Set
Actual Time 6:15 AM EDT 8:25 PM EDT
Civil Twilight 5:47 AM EDT 8:54 PM EDT
Nautical Twilight 5:13 AM EDT 9:28 PM EDT
Astronomical Twilight 4:35 AM EDT 10:05 PM EDT
Moon 2:11 PM EDT (7/16) 12:36 AM EDT (7/16)
Length of Visible Light 15h 06m
Length of Day
14h 09m
First Quarter, 56% of the Moon is Illuminated
Jul 16
First Quarter
Jul 22
Full
Jul 29
Last Quarter
Aug 6
New
Aug 14
First Quarter

Hourly Weather History & Observations

Time (EDT) Temp. Heat Index Dew Point Humidity Pressure Visibility Wind Dir Wind Speed Gust Speed Precip Events Conditions
12:53 AM 80.1 °F 85.1 °F 75.0 °F 85% 30.26 in 10.0 mi East 4.6 mph - N/A   Scattered Clouds
1:37 AM 77.0 °F - 73.4 °F 89% 30.26 in 10.0 mi Calm Calm - N/A   Mostly Cloudy
1:53 AM 77.0 °F - 73.9 °F 90% 30.26 in 10.0 mi Calm Calm - N/A   Mostly Cloudy
2:03 AM 75.2 °F - 73.4 °F 94% 30.25 in 10.0 mi Calm Calm - N/A   Scattered Clouds
2:29 AM 75.2 °F - 73.4 °F 94% 30.25 in 10.0 mi Calm Calm - N/A   Mostly Cloudy
2:53 AM 75.0 °F - 73.0 °F 94% 30.25 in 9.0 mi Calm Calm - N/A   Scattered Clouds
3:37 AM 73.4 °F - 73.4 °F 100% 30.25 in 8.0 mi NNE 3.5 mph - N/A   Mostly Cloudy
3:53 AM 73.9 °F - 73.0 °F 97% 30.25 in 8.0 mi Calm Calm - N/A   Scattered Clouds
4:15 AM 73.4 °F - 73.4 °F 100% 30.25 in 7.0 mi Calm Calm - N/A   Mostly Cloudy
4:27 AM 73.4 °F - 71.6 °F 94% 30.25 in 6.0 mi Calm Calm - N/A   Scattered Clouds
4:34 AM 73.4 °F - 71.6 °F 94% 30.24 in 6.0 mi Calm Calm - N/A   Mostly Cloudy
4:45 AM 73.4 °F - 71.6 °F 94% 30.24 in 7.0 mi Calm Calm - N/A   Partly Cloudy
4:53 AM 73.0 °F - 72.0 °F 96% 30.25 in 6.0 mi NNE 3.5 mph - N/A   Partly Cloudy
5:53 AM 73.0 °F - 72.0 °F 96% 30.26 in 7.0 mi NNE 4.6 mph - N/A   Partly Cloudy
6:31 AM 73.4 °F - 71.6 °F 94% 30.27 in 5.0 mi Calm Calm - N/A   Scattered Clouds
6:53 AM 73.0 °F - 72.0 °F 96% 30.27 in 3.0 mi NNE 3.5 mph - N/A   Mostly Cloudy
7:53 AM 75.9 °F - 73.9 °F 94% 30.28 in 10.0 mi NNE 3.5 mph - N/A   Partly Cloudy
8:53 AM 80.1 °F 85.1 °F 75.0 °F 85% 30.29 in 10.0 mi NNE 4.6 mph - N/A   Clear
9:53 AM 82.9 °F 88.8 °F 73.0 °F 72% 30.28 in 10.0 mi NNW 4.6 mph - N/A   Partly Cloudy
10:53 AM 84.0 °F 89.0 °F 71.1 °F 65% 30.28 in 10.0 mi Variable 3.5 mph - N/A   Clear
11:53 AM 87.1 °F 92.0 °F 70.0 °F 57% 30.27 in 10.0 mi Calm Calm - N/A   Clear
12:53 PM 88.0 °F 93.8 °F 71.1 °F 57% 30.26 in 10.0 mi North 3.5 mph - N/A   Partly Cloudy
1:53 PM 86.0 °F 93.8 °F 73.9 °F 67% 30.25 in 10.0 mi SSE 6.9 mph - N/A   Partly Cloudy
2:53 PM 87.1 °F 94.5 °F 73.0 °F 63% 30.24 in 10.0 mi SSE 6.9 mph - N/A   Clear
3:53 PM 86.0 °F 93.0 °F 73.0 °F 65% 30.22 in 10.0 mi South 5.8 mph - N/A   Clear
4:53 PM 84.9 °F 92.1 °F 73.9 °F 69% 30.22 in 10.0 mi South 10.4 mph - N/A   Clear
5:53 PM 84.0 °F 90.2 °F 73.0 °F 69% 30.20 in 10.0 mi South 10.4 mph - N/A   Clear
6:27 PM 84.2 °F 89.6 °F 71.6 °F 66% 30.20 in 10.0 mi South 8.1 mph - N/A   Partly Cloudy
6:53 PM 84.0 °F 89.0 °F 71.1 °F 65% 30.20 in 10.0 mi South 10.4 mph - N/A   Clear
7:53 PM 82.9 °F 87.5 °F 71.1 °F 67% 30.21 in 10.0 mi SSW 6.9 mph - N/A   Clear
8:43 PM 82.4 °F 87.2 °F 71.6 °F 70% 30.21 in 10.0 mi SSW 6.9 mph - N/A   Partly Cloudy
8:53 PM 81.0 °F 85.8 °F 73.0 °F 77% 30.21 in 10.0 mi SW 8.1 mph - N/A   Clear
9:53 PM 80.1 °F 84.2 °F 73.0 °F 79% 30.22 in 10.0 mi SW 5.8 mph - N/A   Clear
10:53 PM 78.1 °F - 73.0 °F 84% 30.23 in 10.0 mi Calm Calm - N/A   Clear
11:53 PM 79.0 °F - 72.0 °F 79% 30.22 in 10.0 mi WSW 4.6 mph - N/A   Clear